www.pogodaiklimat.ru

Погода и климат >> Архив погоды >> Россия >> Калмыкия >> Элиста


АРХИВ ПОГОДЫ в Элисте

Время (UTC), дата Ветер
(напр.,м/с)
 
Видим.   Явления Облачность Т
(С)
Тd
(С)
f
(%)
Тe
(С)
Тes
(С)
Комфортность P
(гПа)
Po
(гПа)
Тmin
(С)
Tmax
(С)
R
(мм)
R24
(мм)
S
(см)
03 18.06 С 2 20 км ясно +22.3 +9.6 44 +24 +26 комфорт 1011.6 989.0 +18.6
06 18.06 В 3 20 км ясно +27.6 +9.7 33 +28 +38 жарко 1011.3 989.2
09 18.06 СВ 3 20 км 4/4 1000 м
[Cu med, cong]
+30.7 +8.1 24 +30 +39 жарко 1010.3 988.5
12 18.06 В 2 20 км 4/4 1000 м
[Cu med, cong]
+32.7 +5.5 18 +30 +38 жарко 1009.1 987.4
15 18.06 В 2 20 км 3/3 1000 м
[Cu med, cong]
+32.0 +4.8 18 +30 +31 жарко 1008.5 986.7 +33.1
18 18.06 СВ 2 10 км 3/0
[Ac trans]
+27.6 +5.4 24 +27 +27 жарко 1009.6 987.5
21 18.06 СВ 6 10 км 4/0
[Ac trans]
+24.7 +6.5 31 +25 +25 комфорт 1009.9 987.6
00 19.06 СВ 4 10 км 3/0
[Ac trans]
+21.6 +6.9 39 +22 +22 комфорт 1010.0 987.4
03 19.06 СВ 4 20 км 3/0
[Ac trans]
+22.8 +6.8 36 +24 +25 комфорт 1010.0 987.5 +19.7
06 19.06 СВ 5 20 км 3/0
[Ac trans]
+30.0 +4.6 20 +28 +33 жарко 1009.4 987.5
09 19.06 ЮЗ 1 20 км 3/3 1000 м
[Cu med, cong]
+33.2 +3.6 16 +31 +46 жарко 1008.9 987.2
12 19.06 СВ 2 20 км 5/5 1000 м
[Cu med, cong]
+34.3 +2.9 14 +31 +37 жарко 1007.7 986.1
15 19.06 СВ 3 20 км 4/4 1000 м
[Cu med, cong]
+33.5 +2.8 14 +30 +31 жарко 1007.4 985.7 +35.1
18 19.06 СВ 6 10 км 3/0
[Ac trans]
+28.0 +3.3 20 +26 +26 жарко 1008.9 986.8
21 19.06 СВ 6
{11}
10 км 3/0
[Ac trans]
+25.1 +7.9 33 +25 +25 комфорт 1009.4 987.1
00 20.06 С 4 10 км 4/0
[Ac trans]
+23.1 +8.4 39 +24 +24 комфорт 1009.8 987.2
03 20.06 СВ 5 20 км 4/0
[Ac trans]
+23.1 +8.6 40 +24 +25 комфорт 1009.6 987.6 +21.5
06 20.06 СВ 8-12
{12}
20 км 3/0
[Ac trans]
+30.4 +6.6 22 +29 +31 жарко 1009.3 987.4
09 20.06 СВ 7-13
{13}
20 км 8/6 1000 м
[Cu hum Ac trans]
+32.8 +5.2 18 +31 +32 жарко 1009.0 987.2
12 20.06 В 5
{13}
20 км 8/6 1000 м
[Cu hum Ac trans]
+33.6 +3.3 15 +31 +33 жарко 1008.1 986.4
15 20.06 СВ 6
{11}
20 км 4/3 1000 м
[Cu hum Ac trans]
+33.1 +3.9 16 +30 +31 жарко 1007.8 986.1 +34.5
18 20.06 СВ 7-10
{11}
10 км 3/0
[Ac trans]
+29.4 +5.5 22 +28 +28 жарко 1009.0 987.1
21 20.06 В 4
{10}
10 км 1/0
[Ac trans]
+25.4 +7.9 33 +26 +26 жарко 1010.3 988.0
00 21.06 В 3 10 км ясно +22.9 +10.0 44 +25 +25 комфорт 1011.7 989.2
03 21.06 СВ 4 20 км 3/3 600 м
[Sc Ac trans]
+23.3 +7.3 36 +24 +25 комфорт 1012.8 990.4 +21.3
06 21.06 В 6 20 км 3/3 600 м
[Sc diur, vesp Ac trans]
+30.7 +4.7 19 +29 +32 жарко 1013.1 991.1
09 21.06 В 5
{12}
20 км 3/3 600 м
[Cu hum Ac trans Ci fib]
+32.6 +3.3 16 +30 +37 жарко 1012.4 990.6
12 21.06 СВ 7
{12}
20 км 5/3 600 м
[Cu hum Ac trans Ci fib]
+33.5 +2.6 14 +30 +32 жарко 1011.8 990.0
15 21.06 В 5
{10}
20 км 3/0
[Ac trans Ci fib]
+32.5 +0.7 13 +29 +30 жарко 1012.0 990.2 +34.3
18 21.06 СВ 3 10 км 4/0
[Ac trans Ci fib]
+27.1 +1.8 19 +25 +25 комфорт 1013.1 990.9
21 21.06 СВ 3 10 км ясно +24.1 +2.8 25 +23 +23 комфорт 1013.6 991.1
00 22.06 С 2 10 км ясно +22.1 +4.5 32 +22 +22 комфорт 1013.9 991.3
03 22.06 СВ 3 20 км 3/0
[Ci fib]
+24.5 +4.1 27 +24 +25 комфорт 1014.8 992.3 +21.7
06 22.06 В 6 20 км 8/0
[Ci fib]
+31.4 +4.0 18 +29 +33 жарко 1014.5 992.5
09 22.06 В 6-11
{13}
20 км 4/0
[Ac trans Ci fib]
+34.8 +1.7 12 +31 +37 жарко 1013.2 991.6
12 22.06 В 6-11
{12}
20 км 5/3 1000 м
[Cu hum Ac trans Ci fib]
+36.1 +0.7 11 +33 +35 жарко 1012.0 990.5
15 22.06 В 5
{11}
20 км 8/3 1000 м
[Cu hum Ac trans Ci fib]
+35.2 -0.3 11 +32 +32 жарко 1011.6 990.0 +36.3
18 22.06 В 4 10 км 6/0
[Ac trans Ci fib]
+29.6 -0.7 14 +27 +27 жарко 1013.1 990.9
21 22.06 СВ 2 10 км ясно +25.4 +3.0 23 +24 +24 комфорт 1013.5 991.1
00 23.06 СВ 3 10 км 4/0
[Ac trans]
+24.0 +2.9 25 +23 +23 комфорт 1013.9 991.4
03 23.06 СВ 3 20 км 8/0
[Ac trans Ci fib]
+25.4 +3.7 25 +25 +26 комфорт 1014.1 991.7 +22.5
06 23.06 В 5 20 км 3/0
[Ac trans Ci fib]
+31.6 +4.3 18 +29 +34 жарко 1013.7 991.7
09 23.06 В 7-11
{12}
20 км 6/4 1000 м
[Cu med, cong Ac trans Ci fib]
+36.1 +2.9 13 +33 +36 жарко 1012.3 990.7
12 23.06 В 5
{11}
20 км 8/5 1000 м
[Cu med, cong Ac trans Ci fib]
+37.8 +2.3 11 +34 +37 очень
жарко
1011.1 989.7
15 23.06 В 6
{12}
20 км 6/4 1000 м
[Cu med, cong Ac trans Ci fib]
+36.5 +2.6 12 +33 +34 жарко 1010.7 989.2 +38.0
18 23.06 ЮВ 4
{11}
10 км 8/4 600 м
[Sc Ac trans]
+30.7 +3.8 18 +28 +28 жарко 1012.3 990.4
21 23.06 С 2 10 км ясно +25.2 +6.6 30 +25 +25 комфорт 1012.9 990.5
00 24.06 ЮВ 3 10 км 3/0
[Ac trans]
+24.7 +6.7 32 +25 +25 комфорт 1012.7 990.4
03 24.06 СВ 2 20 км 8/0
[Ac trans Ci fib]
+26.0 +8.0 32 +26 +27 жарко 1013.1 990.8 +23.5
06 24.06 В 3 20 км 8/0
[Ac trans Ci fib]
+32.9 +5.8 18 +31 +37 жарко 1012.5 990.7
09 24.06 ЮВ 5 20 км 8/6 1000 м
[Cu hum Ac trans Ci fib]
+36.8 +4.4 13 +34 +37 очень
жарко
1011.2 989.7
12 24.06 ЮЗ 3 20 км 10/8 300 м
[Cb cap Ac trans]
+34.7 +4.2 15 +32 +33 жарко 1010.5 988.9
15 24.06 З 5
{12}
20 км {ливн. осадки} 10/9 600 м
[Sc Ac trans]
+29.3 +11.3 33 +30 +30 жарко 1011.8 989.8 +37.2
18 24.06 СЗ 7
{11}
10 км {ливн. осадки} 9/8 300 м
[Cb cap Ac trans]
+26.9 +10.8 37 +28 +28 жарко 1012.0 989.9
21 24.06 С 5 10 км слаб. ливневой дождь 10/10 300 м
[Cb cap]
+24.5 +13.4 50 +27 +27 жарко 1012.5 990.1
00 25.06 СЗ 5 10 км {ливн. осадки} 10/10 600 м
[Cb cap]
+23.2 +12.8 52 +26 +26 жарко 1011.8 989.4

 

Местоположение метеостанции Элиста (Калмыкия, Россия): широта 46.37 долгота 44.33 высота над уровнем моря 153 м.

В архиве по умолчанию представлена погода в Элисте за последнюю неделю. Архивные данные за месяц целиком и за предыдущие месяцы, начиная с января 2011 года, Вы можете получить, выбрав интересующий диапазон дат из раскрывающегося списка и нажав кнопку "Ввод!".


*Определитесь, кто Вы:
робот инопланетянин человек

Внимание! Время в таблицах - всемирное. Для получения местного времени необходимо прибавить поправку, которая равна 3 ч.

Смотрите также архив погоды в соседних городах и на ближайших метеорологических станциях:

Погода в Ремонтном (Ростовская область, Россия) (55 км)
Погода в Ики-Буруле (Калмыкия, Россия) (67 км)
Погода в Яшкуле (Калмыкия, Россия) (81 км)
Погода в Дивном (Ставропольский край, Россия) (91 км)
Погода в Кетченерах (Калмыкия, Россия) (107 км)
Погода в Арзгире (Ставропольский край, Россия) (108 км)
Погода в Утте (Калмыкия, Россия) (130 км)
Погода в Благодарном (Ставропольский край, Россия) (157 км)
Погода в Светлограде (Ставропольский край, Россия) (161 км)
Погода в Зимовниках (Ростовская область, Россия) (166 км)

Пояснения к столбцам:

Ветер - указаны скорость ветра в м/с - средняя за 10 мин, порывы в срок и между сроками (в фигурных скобках) и направление, откуда дует ветер: С - северный, СВ - северо-восточный, В - восточный, ЮВ - юго-восточный, Ю - южный, ЮЗ - юго-западный, З - западный, СЗ - северо-западный.
Видимость - горизонтальная дальность видимости в метрах или километрах. При видимости от 1 до 10 км при отсутствии осадков обычно наблюдается дымка, при ухудшении видимости до 1 км и менее - туман. В сухую погоду видимость может ухудшаться дымом, пылью или мглою.
Явления - указаны атмосферные явления, наблюдавшиеся в срок или в последний час перед сроком; фигурными скобками обозначены явления, наблюдавшиеся между сроками (за 1-3 часа до срока); квадратными скобками обозначены град или гололедные отложения с указанием их диаметра в мм.
Облачность - указаны через наклонную черту общая и нижняя облачность в баллах и высота нижней границы облаков в метрах; квадратными скобками обозначены формы облаков: Ci - перистые, Cs - перисто-слоистые, Cc - перисто-кучевые, Ac - высококучевые, As - высокослоистые, Sc - слоисто-кучевые, Ns - слоисто-дождевые, Cu - кучевые, Cb - кучево-дождевые. Подробнее классификацию облаков см. в Атласе облаков (PDF).
T - Температура воздуха - температура, измеренная на высоте 2 м над землей.
Td - Температура точки росы - температура, при понижении до которой содержащийся в воздухе водяной пар достигнет насыщения.
f - Относительная влажность воздуха - влажноcть воздуха, измеренная на высоте 2 м над землей.
Te - Эффективная температура - температура, которую ощущает одетый по сезону человек в тени. Характеристика душности погоды. При расчете учитывается влияние влажности воздуха и скорости ветра на теплоощущения человека.
Tes - Эффективная температура на солнце - температура, которую ощущает человек, с поправкой на солнечный нагрев. Характеристика знойности погоды. Зависит от высоты солнца над горизонтом, облачности и скорости ветра. Ночью, в пасмурную погоду, а также при ветре 12 м/с и более поправка равна нулю.
P - Атмосферное давление - приведенное к уровню моря атмосферное давление.
Po - Атмосферное давление - измеренное на уровне метеостанции атмосферное давление.
Tmin - Минимальная температура - минимум температуры воздуха на высоте 2 м над землей.
Tmax - Максимальная температура - максимум температуры воздуха на высоте 2 м над землей.
R - Количество осадков - Количество выпавших осадков за период времени, мм. При наведении курсора мыши на число - период времени, за который выпало указанное количество осадков.
R24 - Количество осадков - Количество выпавших осадков за 24 часа, мм.
S - Снежный покров - Высота снежного покрова, см. При наведении курсора мыши на число - состояние снежного покрова и степень покрытия местности в баллах.